Regional Weather Roundup
Issued by NWS

Home | Current Version | Previous Version | Text Only | Print | Product List | Glossary Off
Versions: 1 2 3 4 5 6 7 8 9 10 11 12 13 14 15 16 17 18 19 20 21 22 23 24 25 26 27 28 29 30 31 32 33 34 35 36 37 38 39 40 41 42 43 44 45 46 47 48 49 50

000
ASUS43 KMPX 280110
RWRMN
WEATHER ROUNDUP FOR MINNESOTA
NATIONAL WEATHER SERVICE TWIN CITIES/CHANHASSEN MN
800 PM CDT WED MAY 27 2015


NOTE: "FAIR" INDICATES FEW OR NO CLOUDS BELOW 12,000 FEET WITH NO
SIGNIFICANT WEATHER AND/OR OBSTRUCTIONS TO VISIBILITY. N/A MEANS
CURRENT SKY AND/OR WEATHER CONDITIONS ARE NOT AVAILABLE.

MNZ060>063-068>070-280200-
   Twin Cities Metro

CITY           SKY/WX    TMP DP  RH WIND       PRES   REMARKS
TWIN CITIES    MOCLDY    80  54  40 W6        29.97R
ST PAUL        CLEAR     79  53  40 W7        29.96R
CRYSTAL        CLEAR     81  51  35 W3        29.95R
BLAINE         PTCLDY    81  52  36 W5        29.97R
LAKEVILLE      CLEAR     77  55  47 CALM      29.98R
EDEN PRAIRIE   CLEAR     79  53  40 SW3       29.96R
SOUTH ST PAUL  CLEAR     81  51  35 CALM      29.96S
LAKE ELMO      FAIR      79  52  38 CALM      29.98R
$$
MNZ001>005-007-008-013>017-022>024-027-028-280200-
   Northwest Minnesota

CITY           SKY/WX    TMP DP  RH WIND       PRES   REMARKS
BEMIDJI        CLEAR     74  51  44 CALM      29.97S
HALLOCK        SUNNY     70  45  40 CALM      29.98R
ROSEAU         CLEAR     70  50  49 E12       29.99R
WARROAD        CLEAR     64  52  63 E8        30.00S
THIEF RVR FALL PTCLDY    73  50  43 N6        29.98R
CROOKSTON      MOCLDY    75  52  43 N3        29.96S
FOSSTON        PTCLDY    72  52  49 CALM      29.98R
DETROIT LAKES  PTCLDY    77  48  36 CALM      29.99S
MOORHEAD       PTCLDY    75  50  41 E6        29.96R THUNDER
PARK RAPIDS    CLEAR     76  51  41 NW6       29.97R
MAHNOMEN       FAIR      76  49  37 NW5       29.96S
$$
MNZ006-009>011-018-025>026-280200-
   North Central Minnesota

CITY           SKY/WX    TMP DP  RH WIND       PRES   REMARKS
BAUDETTE       CLEAR     67  46  47 NE7       29.99R
FLAG ISLAND    CLEAR     66  46  48 NE8       29.99R
INTL FALLS     CLEAR     68  45  43 NE7       29.98R
WASKISH        CLEAR     68  48  49 NE6       29.99R
BIG FORK       CLEAR     72  48  43 N5        29.99R
LONGVILLE      CLEAR     72  55  56 CALM      29.97R
GRAND RAPIDS   CLEAR     75  48  38 NW7       29.98R
CRANE LAKE     CLEAR     70  45  40 CALM      29.99R
ORR            CLEAR     72  45  37 CALM      29.96R
COOK           CLEAR     72  48  43 N5        29.98R
WALKER         FAIR      73  52  46 N3        29.96S
$$
MNZ012-019>021-037-280200-
   Northeast Minnesota

CITY           SKY/WX    TMP DP  RH WIND       PRES   REMARKS
DULUTH         PTCLDY    76  47  35 W6        29.96R
HIBBING        CLEAR     75  47  36 N8        29.96R
EVELETH        CLEAR     72  45  37 N6        29.98R
DULUTH HARBOR  CLEAR     75  54  46 CALM      29.93R
TWO HARBORS    CLEAR     79  55  44 CALM      29.93R
SILVER BAY     CLEAR     75  48  38 CALM      29.93R
GRAND MARAIS     N/A     55  45  68 NE10      29.95R
G MARAIS ARPRT PTCLDY    70  45  40 N7        29.99R
$$
MNZ029>031-032-039>041-046>048-054>057-064-280200-
   West Central Minnesota

CITY           SKY/WX    TMP DP  RH WIND       PRES   REMARKS
FERGUS FALLS   PTCLDY    79  52  38 CALM      29.95S
WHEATON        CLOUDY    75  55  50 SE6       29.96S
MORRIS         MOCLDY    81  48  32 CALM      29.96S
ALEXANDRIA     PTCLDY    78  52  40 CALM      29.99R
ELBOW LAKE     FAIR      76  50  39 CALM      29.96S
WADENA         CLEAR     75  52  43 CALM      29.98R
GLENWOOD       PTCLDY    77  50  38 CALM      29.99S
APPLETON       MOCLDY    81  50  34 NE3       29.95S
BENSON         PTCLDY    77  55  47 CALM      29.96S
ORTONVILLE     MOCLDY    81  48  32 E3        29.95S
MADISON        PTCLDY    81  45  28 CALM      29.96R
WILLMAR          N/A     81  48  32 CALM      29.98S
$$
MNZ033>034-036-042>043-049>051-058-059-280200-
   Central Minnesota

CITY           SKY/WX    TMP DP  RH WIND       PRES   REMARKS
ST CLOUD       CLEAR     78  55  44 N3        29.96R
SAUK CENTRE    FAIR      77  53  43 CALM      29.98R
PAYNESVILLE    PTCLDY    75  49  39 CALM      29.98R
AITKIN         CLEAR     75  54  46 CALM      29.95S
PINE RIVER     CLEAR     75  54  46 CALM      30.00R
BRAINERD       CLEAR     73  53  49 SW6       29.97R
STAPLES        CLEAR     75  46  35 NW3       29.98R
LONG PRAIRIE   FAIR      77  50  38 CALM      29.98S
LITTLE FALLS   CLEAR     73  45  35 CALM      29.98R
LITCHFIELD     PTCLDY    79  46  31 CALM      29.98R
BUFFALO        CLEAR     78  52  40 CALM      29.98R
MAPLE LAKE     CLEAR     77  57  50 CALM      29.98R
$$
MNZ037-044-045-052-053-280200-
   East Central Minnesota

CITY           SKY/WX    TMP DP  RH WIND       PRES   REMARKS
PRINCETON      PTCLDY    81  55  41 CALM      29.97R
MORA           PTCLDY    70  57  64 W6        29.99R
CAMBRIDGE      PTCLDY    79  59  50 CALM      29.95S
RUSH CITY      MOCLDY    72  63  72 CALM      29.96S
MOOSE LAKE     CLEAR     72  55  56 CALM      29.95R
HINCKLEY       FAIR      75  54  46 W5        29.96S
CLOQUET        PTCLDY    75  41  29 NW5       29.97R
MCGREGOR       CLEAR     77  50  38 CALM      29.97R
$$
MNZ071>073-080-081-089-090-097-098-280200-
   Southwest Minnesota

CITY           SKY/WX    TMP DP  RH WIND       PRES   REMARKS
MONTEVIDEO     MOCLDY    82  48  30 CALM      29.97R
GRANITE FALLS  PTCLDY    81  48  31 CALM      29.98R
CANBY          PTCLDY    80  44  28 CALM      29.98R
MARSHALL       PTCLDY    82  46  28 SE3       29.97R
REDWOOD FALLS  PTCLDY    82  44  26 E3        29.96S
OLIVIA         PTCLDY    79  43  27 CALM      29.96S
PIPESTONE      PTCLDY    77  46  33 SW9       30.00S
WINDOM         PTCLDY    81  45  28 CALM      29.99S
WORTHINGTON    PTCLDY    79  46  31 SW6       30.00S
JACKSON        MOCLDY    77  52  41 S5        30.01S
TRACY          PTCLDY    82  48  30 CALM      29.98S
SLAYTON        PTCLDY    77  49  37 CALM      30.01R
$$
MNZ065>067-074>077-082>085-091>093-280200-
   South Central Minnesota

CITY           SKY/WX    TMP DP  RH WIND       PRES   REMARKS
MANKATO        CLEAR     81  54  39 CALM      29.99R
NEW ULM        CLEAR     79  57  47 S3        29.98R
ST JAMES       CLEAR     81  61  50 SE3       29.99S
FAIRMONT       CLEAR     81  48  32 S5        29.99S
GLENCOE        PTCLDY    78  58  49 CALM      29.97S
FARIBAULT      CLEAR     77  57  50 CALM      29.99S
OWATONNA       CLEAR     79  54  41 CALM      30.00S
WASECA         CLEAR     77  54  44 W3        30.01S
ALBERT LEA     CLEAR     79  55  44 CALM      30.01R
$$
MNZ078>079-086>088-094>096-280200-
   Southeast Minnesota

CITY           SKY/WX    TMP DP  RH WIND       PRES   REMARKS
ROCHESTER      CLEAR     74  60  61 SW5       30.02R
RED WING       CLEAR     77  59  53 CALM      29.96S
STANTON        CLEAR     78  55  44 SW3       29.97S
DODGE CENTER   CLEAR     77  55  47 W3        30.01S
WINONA         CLEAR     75  61  60 CALM      29.99S
AUSTIN         CLEAR     75  57  53 SW3       30.01S
PRESTON        CLEAR     74  57  55 SW3       30.03R
$$
ABBREVIATIONS USED IN REMARKS
   TC - TEMPERATURES IN CELSIUS
  WCI - WIND CHILL INDEX
   HX - HEAT INDEX
  VSB - VISIBILITY
$$



USA.gov is the U.S. government's official web portal to all federal, state and local government web resources and services.